Starlink 11182

operational
NORAD ID: 60399 Int'l Des: 2024-141 Owner: SPXS Country: US Constellation: starlink
LEOCIRCULAR

关于 Starlink 11182

正在加载描述...

实时位置

正在加载3D地球...

即将过境

高度历史

Altitude vs Time

uPlot chart will show altitude changes over time

两行轨道根数

1 60399U 24141B 25258.65403595 .00002095 00000-0 22153-4 0 9991
2 60399 53.1632 228.9737 0001929 90.7728 269.3511 15.69713446 64251
Epoch: Sep 15, 2025 • Age: 25 hours

当前状态

高度 362.2 km
速度 7.70 km/s
星下点 39.33°N, 20.14°E
发射日期 Aug 10, 2024
运行时间 1.1 years
类型 internet

技术详情

分类 Payload
质量 960.00 kg
干质量 910.00 kg
总质量 960.00 kg
长度 0.30 m
直径 4.10 m
跨度 29.00 m
形状 Box + pan
制造商 SPXS
平台类型 Starlink V2MD
阶段状态 In Orbit
所有者/国家 SPXS/US

大型星座

Loading constellations...